1505826000.85,65183,14.44,73416.5,0.29,0.13,0.25,0,*4A
1505826002.05,65184,14.44,73414.0,0.29,0.01,0.17,0,*7F
1505826003.26,65185,14.44,73414.8,0.29,-0.07,0.17,0,*55
1505826004.46,65186,14.44,73416.8,0.29,-0.07,0.17,0,*56
1505826005.68,65187,14.44,73416.3,0.29,-0.11,0.13,0,*64
1505826006.85,65188,14.44,73416.0,0.31,-0.15,0.05,0,*51
1505826008.04,65189,14.44,73416.3,0.29,-0.19,0.05,0,*55
1505826009.21,65190,14.44,73418.0,0.31,-0.15,0.05,0,*58
1505826010.4,65191,14.44,73418.3,0.29,-0.07,0.05,0,*63
1505826011.59,65192,14.44,73414.3,0.29,-0.19,0.05,0,*5F
1505826012.78,65193,14.44,73418.0,0.29,-0.29,-0.07,0,*72
1505826013.98,65194,14.44,73414.5,0.29,-0.11,0.05,0,*51
1505826015.18,65195,14.44,73418.3,0.29,-0.29,-0.11,0,*43
1505826016.37,65196,14.44,73420.0,0.29,-0.07,0.05,0,*64
1505826017.57,65197,14.44,73420.0,0.29,0.01,0.13,0,*79
1505826018.76,65198,14.44,73416.8,0.29,-0.11,0.01,0,*59
1505826019.98,65199,14.44,73412.8,0.29,-0.23,-0.07,0,*72
1505826021.17,65200,14.44,73416.0,0.29,-0.19,0.01,0,*53
1505826022.33,65201,14.5,73420.5,0.27,-0.07,0.05,0,*67
1505826023.51,65202,14.44,73418.5,0.27,0.01,0.17,0,*7C
1505826024.68,65203,14.44,73412.8,0.27,-0.11,0.05,0,*52
1505826025.85,65204,14.44,73412.0,0.27,-0.11,0.05,0,*55
1505826027.02,65205,14.5,73418.3,0.27,-0.11,0.05,0,*54
1505826028.21,65206,14.44,73418.5,0.27,-0.07,0.13,0,*57
1505826029.42,65207,14.44,73412.3,0.29,-0.07,0.13,0,*58
1505826030.6,65208,14.44,73414.3,0.27,-0.07,0.13,0,*59
1505826031.78,65209,14.44,73416.5,0.27,0.01,0.13,0,*73
1505826032.94,65210,14.44,73412.3,0.27,-0.07,0.05,0,*67
1505826034.12,65211,14.44,73418.8,0.27,0.01,0.17,0,*7E
1505826035.3,65212,14.44,73416.3,0.27,-0.07,0.17,0,*56
1505826036.49,65213,14.44,73416.3,0.27,-0.07,0.13,0,*53
1505826037.68,65214,14.44,73416.0,0.29,-0.07,0.05,0,*6D
1505826038.86,65215,14.44,73416.8,0.29,-0.07,0.01,0,*68
1505826040.05,65216,14.5,73420.0,0.29,-0.19,0.01,0,*54
1505826041.22,65217,14.44,73416.3,0.27,-0.11,0.01,0,*53
1505826042.39,65218,14.44,73414.5,0.27,-0.11,0.05,0,*58
1505826043.61,65219,14.44,73418.8,0.29,-0.33,-0.23,0,*4E
1505826044.81,65220,14.44,73416.3,0.29,-0.49,-0.41,0,*4D
1505826045.99,65221,14.44,73416.5,0.27,-0.41,-0.33,0,*4F
1505826047.17,65222,14.44,73416.8,0.27,-0.45,-0.33,0,*48
1505826048.37,65223,14.44,73416.5,0.27,-0.41,-0.23,0,*4C
1505826049.55,65224,14.44,73416.5,0.23,-0.33,-0.15,0,*4F
1505826050.75,65225,14.44,73412.8,0.23,-0.23,-0.15,0,*4F
1505826051.92,65226,14.44,73416.0,0.27,-0.07,0.01,0,*66
1505826053.08,65227,14.44,73416.0,0.27,-0.11,0.01,0,*50
1505826054.26,65228,14.44,73414.5,0.27,-0.19,-0.07,0,*7C
1505826055.46,65229,14.5,73414.5,0.23,-0.45,-0.27,0,*42
1505826056.64,65230,14.44,73412.5,0.23,-0.45,-0.33,0,*4F
1505826057.84,65231,14.44,73414.0,0.23,-0.27,-0.15,0,*4E
1505826059.04,65232,14.44,73418.3,0.23,-0.33,-0.27,0,*49
1505826060.24,65233,14.44,73410.8,0.23,-0.37,-0.23,0,*48
1505826061.42,65234,14.44,73410.0,0.23,-0.53,-0.49,0,*41
1505826062.6,65235,14.44,73416.3,0.23,-0.53,-0.49,0,*40
1505826063.77,65236,14.44,73418.8,0.19,-0.49,-0.37,0,*48
1505826064.98,65237,14.44,73414.3,0.21,-0.53,-0.49,0,*40
1505826066.16,65238,14.44,73418.0,0.19,-0.77,-0.77,0,*4F
1505826067.36,65239,14.44,73410.3,0.21,-0.81,-0.77,0,*4C
1505826068.54,65240,14.44,73416.3,0.19,-0.77,-0.57,0,*42
1505826069.74,65241,14.44,73414.8,0.19,-0.93,-0.81,0,*42
1505826070.91,65242,14.44,73412.8,0.19,-0.69,-0.57,0,*4F
1505826072.11,65243,14.44,73418.3,0.17,-0.57,-0.53,0,*49
1505826073.28,65244,14.44,73414.8,0.19,-0.49,-0.49,0,*44
1505826074.46,65245,14.44,73412.0,0.19,-0.65,-0.53,0,*40
1505826075.64,65246,14.44,73416.5,0.19,-0.69,-0.69,0,*46
1505826076.84,65247,14.44,73416.0,0.17,-0.81,-0.73,0,*44
1505826078.02,65248,14.5,73416.3,0.15,-0.73,-0.73,0,*44
1505826079.2,65249,14.44,73416.3,0.15,-0.73,-0.81,0,*48
1505826080.37,65250,14.5,73418.8,0.15,-0.61,-0.61,0,*4D
1505826081.56,65251,14.44,73412.8,0.17,-0.61,-0.61,0,*4E
1505826082.72,65252,14.44,73412.5,0.15,-0.61,-0.61,0,*4F
1505826083.93,65253,14.44,73418.0,0.13,-0.73,-0.77,0,*4C
1505826085.18,65254,14.44,73412.5,0.13,-0.85,-0.85,0,*4F
1505826086.44,65255,14.44,73418.5,0.13,-1.01,-0.97,0,*70
1505826087.69,65256,14.44,73418.5,0.11,-1.13,-1.09,0,*44
1505826088.9,65257,14.44,73418.0,0.13,-1.21,-1.25,0,*48
1505826090.1,65258,14.44,73416.3,0.11,-1.25,-1.33,0,*46
1505826091.3,65259,14.44,73418.0,0.11,-1.25,-1.33,0,*47
1505826092.47,65260,14.44,73412.8,0.09,-1.51,-1.55,0,*77
1505826093.7,65261,14.44,73418.3,0.09,-1.39,-1.39,0,*72
1505826094.91,65262,14.44,73416.0,0.07,-1.29,-1.29,0,*7F
1505826096.17,65263,14.44,73418.3,0.07,-1.05,-1.01,0,*7A
1505826097.41,65264,14.5,73418.5,0.07,-0.93,-0.89,0,*72
1505826098.65,65265,14.44,73418.3,0.07,-0.93,-1.01,0,*42
1505826099.9,65266,14.44,73416.0,0.07,-0.93,-1.01,0,*41
1505826101.1,65267,14.44,73412.8,0.05,-1.17,-1.09,0,*77
1505826102.33,65268,14.44,73416.0,0.05,-0.97,-1.05,0,*4D
1505826103.55,65269,14.44,73412.8,0.01,-1.01,-1.09,0,*7A
1505826104.76,65270,14.44,73416.0,0.05,-0.93,-0.93,0,*7E
1505826105.98,65271,14.44,73418.0,0.05,-1.05,-0.97,0,*45
1505826107.19,65272,14.5,73420.0,0.05,-0.93,-0.85,0,*7B
1505826108.4,65273,14.44,73414.5,0.01,-0.89,-0.89,0,*79
1505826109.62,65274,14.44,73410.8,0.01,-0.89,-0.89,0,*7E
1505826110.79,65275,14.44,73418.0,0.05,-0.73,-0.81,0,*76
1505826112.01,65276,14.44,73418.8,0.01,-0.97,-1.01,0,*42
1505826113.23,65277,14.44,73412.8,0.01,-0.97,-0.85,0,*7E
1505826114.44,65278,14.44,73410.5,0.05,-0.85,-0.97,0,*75
1505826115.63,65279,14.44,73414.0,0.05,-0.85,-0.81,0,*73
1505826116.84,65280,14.44,73412.0,0.01,-0.85,-0.85,0,*75
1505826118.02,65281,14.44,73412.8,0.01,-1.21,-1.21,0,*74
1505826119.25,65282,14.44,73412.5,0.01,-1.01,-1.01,0,*77
1505826120.45,65283,14.44,73414.3,-0.01,-0.77,-0.77,0,*5B
1505826121.65,65284,14.44,73414.8,-0.01,-0.77,-0.77,0,*5C
1505826122.87,65285,14.44,73412.0,-0.01,-1.21,-1.21,0,*5D
1505826124.12,65286,14.44,73418.3,-0.01,-0.97,-1.01,0,*60
1505826125.33,65287,14.44,73414.0,-0.01,-1.21,-1.25,0,*5B
1505826126.54,65288,14.44,73412.0,-0.01,-1.21,-1.25,0,*54
1505826127.79,65289,14.44,73416.0,-0.01,-1.01,-0.97,0,*6F
1505826129.0,65290,14.44,73410.5,-0.01,-0.77,-0.77,0,*59
1505826130.2,65291,14.5,73416.5,-0.03,-1.25,-1.35,0,*5B
1505826131.46,65292,14.5,73418.0,-0.01,-1.01,-1.09,0,*53
1505826132.72,65293,14.44,73414.3,-0.01,-1.01,-1.13,0,*59
1505826133.93,65294,14.44,73412.5,-0.03,-1.13,-1.21,0,*5E
1505826135.13,65295,14.44,73414.8,-0.03,-1.25,-1.13,0,*5B
1505826136.36,65296,14.5,73418.5,-0.03,-1.05,-1.13,0,*5A
1505826137.6,65297,14.5,73416.3,-0.03,-1.39,-1.39,0,*5C
1505826138.84,65298,14.44,73414.0,-0.03,-1.39,-1.35,0,*5F
1505826140.07,65299,14.44,73412.5,-0.03,-1.05,-1.01,0,*56
1505826141.28,65300,14.44,73414.0,-0.05,-0.81,-0.81,0,*55
1505826142.52,65301,14.44,73416.8,-0.05,-0.93,-0.89,0,*5F
1505826143.74,65302,14.44,73416.3,-0.05,-0.93,-0.81,0,*54
1505826145.0,65303,14.44,73412.5,-0.05,-1.01,-1.05,0,*52
1505826146.22,65304,14.44,73416.8,-0.03,-0.89,-0.89,0,*57
1505826147.4,65305,14.44,73414.3,-0.03,-0.81,-0.81,0,*56
1505826148.61,65306,14.44,73412.3,-0.05,-1.17,-1.17,0,*53
1505826149.88,65307,14.44,73418.0,-0.05,-1.39,-1.47,0,*5B
1505826151.11,65308,14.44,73416.0,-0.05,-1.47,-1.51,0,*5A
1505826152.37,65309,14.44,73416.0,-0.05,-1.47,-1.47,0,*5C
1505826153.61,65310,14.44,73416.5,-0.07,-1.43,-1.43,0,*56
1505826154.79,65311,14.44,73412.8,-0.07,-1.55,-1.63,0,*52
1505826156.06,65312,14.44,73414.5,-0.09,-1.47,-1.43,0,*5E
1505826157.27,65313,14.44,73412.8,-0.11,-1.21,-1.13,0,*63
1505826158.46,65314,14.44,73412.0,-0.07,-1.33,-1.29,0,*59
1505826159.65,65315,14.44,73412.0,-0.07,-1.21,-1.21,0,*53
1505826160.89,65316,14.44,73410.5,-0.07,-1.05,-1.05,0,*50
1505826162.14,65317,14.44,73408.5,-0.09,-0.97,-0.89,0,*50
1505826163.39,65318,14.44,73414.8,-0.09,-1.01,-0.97,0,*6E
1505826164.66,65319,14.44,73412.3,-0.09,-1.01,-1.01,0,*51
1505826165.92,65320,14.44,73414.0,-0.09,-1.35,-1.35,0,*5B
1505826167.16,65321,14.44,73414.0,-0.11,-1.35,-1.35,0,*63
1505826168.37,65322,14.44,73414.0,-0.09,-1.21,-1.21,0,*59
1505826169.62,65323,14.44,73416.0,-0.09,-1.13,-1.21,0,*59
1505826170.83,65324,14.44,73414.5,-0.09,-1.21,-1.25,0,*5B
1505826172.07,65325,14.5,73416.8,-0.09,-1.33,-1.35,0,*58
1505826173.33,65326,14.44,73412.3,-0.09,-1.35,-1.35,0,*5D
1505826174.57,65327,14.44,73416.0,-0.09,-1.47,-1.55,0,*5F
1505826175.77,65328,14.44,73418.3,-0.11,-1.71,-1.67,0,*6D
1505826176.96,65329,14.5,73418.5,-0.11,-1.75,-1.71,0,*6F
1505826178.15,65330,14.44,73412.0,-0.11,-1.67,-1.67,0,*63
1505826179.33,65331,14.44,73414.8,-0.11,-1.59,-1.67,0,*6F
1505826180.55,65332,14.44,73414.3,-0.13,-1.63,-1.71,0,*60
1505826181.75,65333,14.44,73414.0,-0.15,-1.71,-1.71,0,*64
1505826182.94,65334,14.44,73412.3,-0.15,-1.59,-1.59,0,*63
1505826184.21,65335,14.44,73412.5,-0.13,-1.47,-1.39,0,*6D
1505826185.45,65336,14.44,73414.5,-0.15,-1.47,-1.47,0,*61
1505826186.64,65337,14.44,73418.3,-0.15,-1.51,-1.59,0,*68
1505826187.88,65338,14.44,73416.8,-0.15,-1.39,-1.39,0,*6F
1505826189.08,65339,14.5,73418.0,-0.15,-1.29,-1.29,0,*6E
1505826190.32,65340,14.44,73408.5,-0.15,-1.35,-1.39,0,*6C
1505826191.52,65341,14.44,73410.3,-0.15,-1.17,-1.17,0,*61
1505826192.79,65342,14.44,73416.3,-0.13,-1.01,-1.05,0,*60
1505826194.01,65343,14.44,73416.8,-0.15,-0.89,-0.89,0,*63
1505826195.26,65344,14.44,73414.8,-0.15,-1.01,-1.05,0,*60
1505826196.49,65345,14.44,73416.5,-0.15,-0.89,-0.93,0,*6E
1505826197.71,65346,14.44,73416.0,-0.15,-0.85,-0.89,0,*6A
1505826198.99,65347,14.44,73418.3,-0.13,-1.05,-1.05,0,*61
1505826200.23,65348,14.44,73414.8,-0.15,-1.05,-1.01,0,*6C
1505826201.48,65349,14.5,73422.3,-0.13,-0.93,-0.93,0,*6F
1505826202.73,65350,14.44,73412.8,-0.13,-0.93,-0.93,0,*67
1505826203.96,65351,14.5,73416.0,-0.15,-0.89,-0.89,0,*60
1505826205.21,65352,14.44,73414.8,-0.13,-0.93,-0.93,0,*65
1505826206.48,65353,14.44,73412.3,-0.13,-1.05,-1.05,0,*64
1505826207.71,65354,14.44,73414.5,-0.11,-0.89,-0.89,0,*61
1505826208.97,65355,14.44,73416.3,-0.13,-1.01,-1.01,0,*62
1505826210.22,65356,14.44,73414.8,-0.13,-0.93,-0.93,0,*61
1505826211.49,65357,14.44,73412.8,-0.13,-1.13,-1.13,0,*60
1505826212.71,65358,14.44,73412.8,-0.13,-1.17,-1.29,0,*62
1505826213.97,65359,14.44,73414.8,-0.13,-1.13,-1.13,0,*6E
1505826215.22,65360,14.5,73414.5,-0.13,-1.17,-1.13,0,*60
1505826216.47,65361,14.44,73414.8,-0.15,-1.39,-1.39,0,*63
1505826217.71,65362,14.44,73414.0,-0.15,-1.39,-1.39,0,*60
1505826218.96,65363,14.44,73412.0,-0.15,-1.35,-1.35,0,*61
1505826220.15,65364,14.44,73416.3,-0.15,-1.17,-1.17,0,*66
1505826221.43,65365,14.44,73414.5,-0.13,-1.05,-1.05,0,*61
1505826222.7,65366,14.44,73412.3,-0.13,-1.05,-1.01,0,*66
1505826223.92,65367,14.44,73410.5,-0.15,-0.93,-0.85,0,*62
1505826225.17,65368,14.44,73418.8,-0.13,-0.85,-0.85,0,*6C
1505826226.36,65369,14.44,73414.0,-0.15,-1.25,-1.25,0,*6B
1505826227.61,65370,14.5,73416.0,-0.13,-0.93,-0.93,0,*65
1505826228.86,65371,14.5,73418.0,-0.13,-0.93,-0.89,0,*6F
1505826230.11,65372,14.44,73416.0,-0.13,-0.93,-0.89,0,*6C
1505826231.33,65373,14.44,73416.8,-0.13,-1.25,-1.17,0,*67
1505826232.58,65374,14.44,73414.8,-0.13,-1.25,-1.35,0,*60
1505826233.82,65375,14.44,73416.5,-0.15,-1.35,-1.35,0,*66
1505826235.04,65376,14.44,73412.8,-0.13,-1.29,-1.29,0,*63
1505826236.25,65377,14.5,73416.8,-0.13,-1.25,-1.25,0,*62
1505826237.44,65378,14.44,73414.3,-0.15,-1.25,-1.29,0,*67
1505826238.63,65379,14.44,73414.0,-0.15,-1.17,-1.25,0,*6B
1505826239.85,65380,14.44,73414.8,-0.15,-1.39,-1.29,0,*6D
1505826241.12,65381,14.44,73414.5,-0.13,-1.35,-1.35,0,*6B
1505826242.37,65382,14.44,73414.0,-0.15,-1.35,-1.35,0,*6E
1505826243.56,65383,14.44,73412.3,-0.15,-1.29,-1.29,0,*6F
1505826244.8,65384,14.44,73414.8,-0.15,-1.13,-1.05,0,*6F
1505826246.03,65385,14.44,73412.5,-0.17,-1.17,-1.17,0,*6B
1505826247.25,65386,14.44,73408.5,-0.17,-1.55,-1.51,0,*6C
1505826248.47,65387,14.5,73414.8,-0.17,-1.63,-1.63,0,*69
1505826249.65,65388,14.44,73412.5,-0.21,-1.55,-1.55,0,*63
1505826250.87,65389,14.44,73412.8,-0.17,-1.55,-1.55,0,*67
1505826252.05,65390,14.44,73410.0,-0.21,-1.55,-1.55,0,*6A
1505826253.26,65391,14.44,73414.3,-0.17,-1.51,-1.55,0,*6A
1505826254.5,65392,14.44,73410.3,-0.21,-1.43,-1.43,0,*68
1505826255.73,65393,14.5,73418.5,-0.21,-1.09,-1.09,0,*69
1505826256.98,65394,14.44,73414.5,-0.21,-1.39,-1.43,0,*63
1505826258.16,65395,14.44,73412.3,-0.21,-1.51,-1.55,0,*6B
1505826259.34,65396,14.44,73414.3,-0.21,-1.29,-1.33,0,*67
1505826260.57,65397,14.44,73416.0,-0.21,-0.97,-0.93,0,*69
1505826261.83,65398,14.5,73416.3,-0.17,-0.89,-0.89,0,*67
1505826263.08,65399,14.44,73416.8,-0.17,-0.93,-0.93,0,*66
1505826264.31,65400,14.44,73416.0,-0.21,-0.97,-0.97,0,*64
1505826265.55,65401,14.44,73416.5,-0.17,-1.09,-1.17,0,*6F
1505826266.77,65402,14.44,73412.0,-0.17,-1.21,-1.29,0,*6B
1505826267.96,65403,14.44,73418.8,-0.21,-1.33,-1.33,0,*67
1505826269.23,65404,14.44,73414.8,-0.17,-1.09,-1.09,0,*65
1505826270.49,65405,14.44,73416.3,-0.17,-0.97,-0.97,0,*64
1505826271.73,65406,14.44,73414.5,-0.17,-1.09,-1.17,0,*68
1505826273.01,65407,14.44,73414.8,-0.17,-1.05,-1.05,0,*66
1505826274.28,65408,14.44,73414.3,-0.17,-1.05,-1.05,0,*69
1505826275.5,65409,14.44,73412.5,-0.21,-1.39,-1.29,0,*6C
1505826276.69,65410,14.44,73414.0,-0.21,-1.21,-1.21,0,*65
1505826277.93,65411,14.44,73414.0,-0.21,-1.39,-1.43,0,*69
1505826279.14,65412,14.44,73412.3,-0.21,-1.51,-1.43,0,*64
1505826280.38,65413,14.44,73412.8,-0.21,-1.39,-1.43,0,*6B
1505826281.57,65414,14.44,73414.3,-0.21,-1.63,-1.63,0,*61
1505826282.75,65415,14.44,73414.3,-0.21,-1.63,-1.63,0,*60
1505826283.94,65416,14.5,73416.0,-0.21,-1.55,-1.63,0,*66
1505826285.2,65417,14.44,73416.5,-0.23,-1.43,-1.47,0,*64
1505826286.47,65418,14.44,73414.8,-0.23,-1.43,-1.43,0,*6F
1505826287.69,65419,14.44,73414.0,-0.25,-1.47,-1.55,0,*6B
1505826288.93,65420,14.44,73412.3,-0.23,-1.47,-1.55,0,*67
1505826290.11,65421,14.44,73414.3,-0.25,-1.67,-1.59,0,*6E
1505826291.32,65422,14.44,73416.3,-0.23,-1.67,-1.59,0,*6B
1505826292.51,65423,14.44,73412.3,-0.25,-1.59,-1.59,0,*61
1505826293.75,65424,14.44,73414.3,-0.25,-1.47,-1.47,0,*66
1505826294.99,65425,14.44,73416.5,-0.25,-1.35,-1.35,0,*67
1505826296.26,65426,14.44,73414.0,-0.23,-1.43,-1.43,0,*62
1505826297.5,65427,14.44,73412.3,-0.25,-1.35,-1.35,0,*65
1505826298.75,65428,14.44,73412.0,-0.25,-1.35,-1.43,0,*6B
1505826299.94,65429,14.44,73414.5,-0.25,-1.25,-1.33,0,*6C
1505826301.18,65430,14.44,73414.8,-0.27,-1.29,-1.35,0,*6C
1505826302.41,65431,14.44,73412.5,-0.27,-1.35,-1.29,0,*6D
1505826303.63,65432,14.44,73414.0,-0.27,-1.17,-1.29,0,*6E
1505826304.87,65433,14.44,73414.5,-0.25,-1.13,-1.13,0,*60
1505826306.07,65434,14.44,73414.3,-0.25,-1.21,-1.21,0,*67
1505826307.31,65435,14.44,73412.0,-0.25,-1.01,-1.01,0,*66
1505826308.57,65436,14.44,73414.8,-0.23,-1.01,-1.01,0,*63
1505826309.76,65437,14.44,73414.3,-0.25,-1.21,-1.25,0,*60
1505826310.97,65438,14.44,73414.5,-0.23,-1.25,-1.33,0,*6A
1505826312.17,65439,14.44,73416.3,-0.25,-1.33,-1.33,0,*6A
1505826313.41,65440,14.44,73414.8,-0.25,-1.13,-1.09,0,*6F
1505826314.64,65441,14.44,73414.5,-0.25,-1.09,-1.01,0,*6D
1505826315.86,65442,14.44,73416.5,-0.25,-1.43,-1.33,0,*61
1505826317.11,65443,14.44,73412.3,-0.23,-1.09,-1.13,0,*6A
1505826318.36,65444,14.44,73418.5,-0.25,-1.01,-1.01,0,*60
1505826319.55,65445,14.44,73418.8,-0.25,-1.21,-1.21,0,*61
1505826320.8,65446,14.44,73414.8,-0.23,-1.33,-1.35,0,*62
1505826322.01,65447,14.5,73416.5,-0.23,-1.33,-1.33,0,*65
1505826323.26,65448,14.44,73418.0,-0.25,-1.43,-1.35,0,*6D
1505826324.5,65449,14.44,73418.0,-0.25,-1.43,-1.43,0,*6D
1505826325.69,65450,14.44,73416.5,-0.25,-1.55,-1.55,0,*65
1505826326.88,65451,14.44,73412.3,-0.25,-1.67,-1.71,0,*63
1505826328.1,65452,14.44,73418.3,-0.23,-1.59,-1.67,0,*6C
1505826329.28,65453,14.44,73414.8,-0.25,-1.55,-1.59,0,*6A
1505826330.55,65454,14.44,73412.8,-0.27,-1.47,-1.47,0,*63
1505826331.76,65455,14.44,73412.3,-0.27,-1.63,-1.63,0,*62
1505826332.98,65456,14.44,73416.0,-0.27,-1.29,-1.29,0,*61
1505826334.19,65457,14.44,73414.8,-0.27,-1.25,-1.25,0,*60
1505826335.4,65458,14.44,73416.0,-0.27,-1.75,-1.75,0,*6F
1505826336.64,65459,14.5,73418.8,-0.29,-1.83,-1.87,0,*64
1505826337.83,65460,14.44,73414.0,-0.29,-1.75,-1.75,0,*6A
1505826339.02,65461,14.5,73416.5,-0.29,-1.59,-1.63,0,*62
1505826340.29,65462,14.44,73414.3,-0.27,-1.39,-1.35,0,*6A
1505826341.56,65463,14.44,73416.5,-0.27,-1.47,-1.47,0,*67
1505826342.74,65464,14.44,73412.8,-0.29,-1.51,-1.51,0,*6E
1505826343.97,65465,14.44,73416.5,-0.29,-1.29,-1.35,0,*62
1505826345.16,65466,14.44,73416.8,-0.29,-1.59,-1.51,0,*64
1505826346.36,65467,14.44,73414.0,-0.29,-1.71,-1.71,0,*6D
1505826347.56,65468,14.44,73412.8,-0.29,-1.71,-1.71,0,*62
1505826348.75,65469,14.44,73414.0,-0.29,-1.63,-1.67,0,*67
1505826349.97,65470,14.44,73412.5,-0.29,-1.47,-1.51,0,*6C
1505826351.19,65471,14.44,73414.0,-0.31,-1.63,-1.63,0,*63
1505826352.41,65472,14.44,73416.3,-0.31,-1.33,-1.29,0,*6B
1505826353.62,65473,14.44,73412.5,-0.31,-1.21,-1.17,0,*64
1505826354.85,65474,14.44,73412.5,-0.31,-1.21,-1.21,0,*66
1505826356.07,65475,14.44,73418.5,-0.31,-1.33,-1.29,0,*6C
1505826357.28,65476,14.44,73414.8,-0.31,-1.29,-1.29,0,*64
1505826358.56,65477,14.44,73412.0,-0.31,-1.39,-1.39,0,*65
1505826359.8,65478,14.44,73412.5,-0.33,-1.47,-1.43,0,*6C
1505826361.07,65479,14.44,73416.8,-0.31,-1.43,-1.39,0,*66
1505826362.29,65480,14.44,73418.5,-0.31,-1.29,-1.29,0,*6D
1505826363.54,65481,14.44,73414.8,-0.29,-1.47,-1.47,0,*65
1505826364.74,65482,14.44,73410.8,-0.29,-1.71,-1.71,0,*66
1505826365.96,65483,14.44,73412.3,-0.31,-1.67,-1.75,0,*6D
1505826367.17,65484,14.44,73414.8,-0.31,-1.55,-1.55,0,*69
1505826368.38,65485,14.44,73414.5,-0.31,-1.75,-1.75,0,*68
1505826369.58,65486,14.44,73414.0,-0.33,-1.79,-1.71,0,*61
1505826370.77,65487,14.44,73410.5,-0.33,-1.67,-1.71,0,*6F
1505826371.98,65488,14.44,73414.3,-0.31,-1.51,-1.51,0,*65
1505826373.18,65489,14.44,73414.5,-0.33,-1.67,-1.67,0,*66
1505826374.37,65490,14.44,73418.5,-0.33,-1.59,-1.55,0,*62
1505826375.58,65491,14.44,73414.3,-0.33,-1.47,-1.55,0,*6C
1505826376.83,65492,14.44,73412.0,-0.33,-1.47,-1.43,0,*68
1505826378.02,65493,14.44,73412.3,-0.33,-1.59,-1.67,0,*60
1505826379.22,65494,14.44,73416.3,-0.33,-1.71,-1.67,0,*6D
1505826380.49,65495,14.44,73418.5,-0.35,-1.47,-1.47,0,*6D
1505826381.76,65496,14.44,73416.8,-0.35,-1.47,-1.43,0,*6A
1505826382.99,65497,14.44,73412.3,-0.35,-1.71,-1.71,0,*6F
1505826384.23,65498,14.44,73412.3,-0.35,-1.79,-1.83,0,*65
1505826385.45,65499,14.44,73416.0,-0.35,-1.79,-1.79,0,*61
1505826386.66,65500,14.44,73412.0,-0.35,-1.79,-1.79,0,*60
1505826387.88,65501,14.44,73416.5,-0.35,-1.71,-1.79,0,*69
1505826389.13,65502,14.44,73416.3,-0.37,-1.83,-1.83,0,*60
1505826390.39,65503,14.44,73416.3,-0.35,-1.83,-1.83,0,*63
1505826391.64,65504,14.44,73418.8,-0.37,-1.83,-1.83,0,*66
1505826392.86,65505,14.44,73418.0,-0.35,-1.79,-1.71,0,*6D
1505826394.04,65506,14.44,73420.8,-0.37,-1.75,-1.75,0,*64
1505826395.27,65507,14.44,73414.8,-0.35,-1.71,-1.67,0,*60
1505826396.51,65508,14.44,73414.8,-0.37,-1.47,-1.47,0,*6A
1505826397.69,65509,14.44,73412.5,-0.37,-1.59,-1.59,0,*6B
1505826398.92,65510,14.44,73416.3,-0.37,-1.83,-1.71,0,*6E
1505826400.16,65511,14.44,73416.5,-0.37,-1.83,-1.83,0,*62
1505826401.37,65512,14.44,73414.0,-0.37,-1.75,-1.83,0,*68
1505826402.61,65513,14.44,73412.5,-0.43,-1.79,-1.87,0,*62
1505826403.82,65514,14.44,73412.0,-0.39,-1.51,-1.59,0,*61
1505826405.09,65515,14.44,73414.0,-0.39,-1.47,-1.47,0,*68
1505826406.31,65516,14.44,73412.8,-0.39,-1.71,-1.71,0,*6B
1505826407.52,65517,14.44,73414.0,-0.39,-1.51,-1.59,0,*62
1505826408.71,65518,14.44,73412.0,-0.37,-1.63,-1.63,0,*6B
1505826409.93,65519,14.44,73412.3,-0.39,-1.29,-1.29,0,*64
1505826411.14,65520,14.44,73414.5,-0.43,-1.29,-1.33,0,*68
1505826412.35,65521,14.44,73414.3,-0.39,-1.51,-1.59,0,*67
1505826413.56,65522,14.44,73414.8,-0.39,-1.59,-1.59,0,*6C
1505826414.77,65523,14.44,73416.8,-0.39,-1.63,-1.63,0,*6D
1505826416.04,65524,14.44,73416.5,-0.39,-1.39,-1.39,0,*6A
1505826417.26,65525,14.44,73416.3,-0.39,-1.29,-1.25,0,*67
1505826418.47,65526,14.44,73414.0,-0.39,-1.25,-1.29,0,*64
1505826419.66,65527,14.44,73414.3,-0.37,-1.25,-1.25,0,*67
1505826420.85,65528,14.44,73414.0,-0.37,-1.17,-1.17,0,*68
1505826422.11,65529,14.44,73412.5,-0.35,-1.05,-0.97,0,*51
1505826423.35,65530,14.44,73412.3,-0.37,-1.13,-1.13,0,*61
1505826424.56,65531,14.44,73412.5,-0.37,-1.09,-1.17,0,*6F
1505826425.78,65532,14.44,73410.8,-0.35,-1.25,-1.25,0,*61
1505826426.99,65533,14.44,73408.0,-0.37,-1.17,-1.09,0,*6D
1505826428.26,65534,14.44,73410.0,-0.35,-1.13,-1.09,0,*6C
1505826429.52,65535,14.44,73412.0,-0.35,-1.13,-1.13,0,*66
1505826430.72,0,14.44,73414.8,-0.35,-1.21,-1.21,0,*66
1505826431.91,1,14.44,73414.0,-0.35,-1.25,-1.33,0,*60
1505826433.13,2,14.44,73414.0,-0.35,-1.21,-1.13,0,*65
1505826434.37,3,14.44,73414.0,-0.35,-1.13,-1.09,0,*6E
1505826435.61,4,14.44,73414.3,-0.35,-1.09,-1.13,0,*69
1505826436.81,5,14.44,73412.3,-0.35,-1.21,-1.21,0,*63
1505826438.04,6,14.44,73412.5,-0.35,-1.13,-1.13,0,*60
1505826439.28,7,14.44,73412.0,-0.35,-1.13,-1.13,0,*61
1505826440.47,8,14.44,73412.8,-0.35,-1.25,-1.25,0,*6E
1505826441.67,9,14.44,73408.5,-0.33,-1.33,-1.43,0,*6E
1505826442.85,10,14.44,73412.8,-0.33,-1.33,-1.25,0,*56
1505826444.07,11,14.44,73412.0,-0.35,-1.25,-1.13,0,*53
1505826445.28,12,14.44,73416.3,-0.33,-1.33,-1.35,0,*55
1505826446.46,13,14.44,73412.5,-0.33,-1.21,-1.21,0,*52
1505826447.68,14,14.44,73412.5,-0.33,-1.05,-0.97,0,*6F
1505826448.87,15,14.5,73418.3,-0.33,-0.85,-0.81,0,*50
1505826450.09,16,14.44,73414.0,-0.33,-0.97,-0.97,0,*57
1505826451.31,17,14.44,73414.0,-0.33,-1.05,-0.93,0,*68
1505826452.53,18,14.44,73412.0,-0.33,-1.09,-1.09,0,*59
1505826453.76,19,14.44,73414.3,-0.33,-1.05,-1.05,0,*58
1505826454.97,20,14.44,73412.0,-0.33,-0.93,-0.85,0,*55
1505826456.22,21,14.44,73418.0,-0.31,-1.05,-1.09,0,*5D
1505826457.47,22,14.44,73418.3,-0.31,-1.05,-1.05,0,*52
1505826458.73,23,14.44,73414.5,-0.31,-1.01,-1.05,0,*57
1505826459.91,24,14.44,73418.0,-0.33,-1.21,-1.21,0,*56
1505826461.16,25,14.44,73416.0,-0.31,-1.43,-1.43,0,*55
1505826462.41,26,14.44,73412.5,-0.31,-1.39,-1.43,0,*5B
1505826463.64,27,14.44,73416.3,-0.33,-1.35,-1.43,0,*54
1505826464.87,28,14.44,73412.3,-0.33,-1.43,-1.35,0,*5B
1505826466.05,29,14.44,73418.0,-0.33,-1.67,-1.67,0,*5B
1505826467.22,30,14.44,73412.8,-0.33,-1.59,-1.71,0,*59
1505826468.41,31,14.5,73420.5,-0.33,-1.71,-1.67,0,*55
1505826469.58,32,14.44,73412.0,-0.33,-1.79,-1.79,0,*51
1505826470.77,33,14.44,73414.8,-0.33,-1.71,-1.67,0,*57
1505826471.97,34,14.44,73412.0,-0.35,-1.67,-1.67,0,*51
1505826473.17,35,14.44,73414.0,-0.35,-1.67,-1.71,0,*57
1505826474.42,36,14.44,73412.5,-0.35,-1.83,-1.83,0,*53
1505826475.68,37,14.44,73416.8,-0.35,-1.83,-1.83,0,*52
1505826476.91,38,14.44,73412.8,-0.37,-1.99,-2.03,0,*5F
1505826478.13,39,14.44,73414.8,-0.37,-1.83,-1.83,0,*5E
1505826479.36,40,14.44,73414.8,-0.37,-1.83,-1.83,0,*50
1505826480.54,41,14.44,73414.5,-0.37,-1.71,-1.71,0,*51
1505826481.77,42,14.44,73410.3,-0.39,-1.47,-1.51,0,*5B
1505826482.99,43,14.44,73410.3,-0.39,-1.29,-1.39,0,*5C
1505826484.19,44,14.44,73410.8,-0.39,-1.25,-1.17,0,*5B
1505826485.39,45,14.44,73408.3,-0.39,-1.17,-1.25,0,*5A
1505826486.6,46,14.44,73410.3,-0.39,-1.29,-1.29,0,*58
1505826487.82,47,14.44,73412.5,-0.37,-1.35,-1.35,0,*57
1505826488.99,48,14.44,73410.8,-0.37,-1.63,-1.63,0,*58
1505826490.22,49,14.44,73412.0,-0.37,-1.39,-1.39,0,*59
1505826491.42,50,14.44,73410.0,-0.39,-1.29,-1.25,0,*53
1505826492.62,51,14.44,73414.0,-0.39,-1.17,-1.17,0,*5E
1505826493.82,52,14.44,73412.0,-0.39,-1.25,-1.25,0,*5D
1505826494.99,53,14.44,73414.5,-0.37,-1.29,-1.29,0,*52
1505826496.24,54,14.44,73414.5,-0.35,-1.13,-1.09,0,*5C
1505826497.48,55,14.44,73412.8,-0.35,-0.97,-0.93,0,*52
1505826498.71,56,14.44,73414.3,-0.35,-0.93,-0.85,0,*52
1505826499.95,57,14.44,73412.3,-0.35,-0.97,-0.97,0,*54
1505826501.19,58,14.44,73412.5,-0.35,-0.97,-0.97,0,*5B
1505826502.44,59,14.44,73412.5,-0.35,-1.35,-1.43,0,*5B
1505826503.66,60,14.44,73412.0,-0.35,-1.47,-1.55,0,*53
1505826504.83,61,14.44,73412.5,-0.37,-1.63,-1.75,0,*54
1505826506.03,62,14.44,73412.8,-0.37,-1.75,-1.83,0,*59
1505826507.26,63,14.44,73410.8,-0.37,-1.39,-1.39,0,*51
1505826508.49,64,14.44,73414.8,-0.35,-1.33,-1.35,0,*52
1505826509.72,65,14.44,73414.3,-0.37,-1.39,-1.47,0,*5E
1505826510.89,66,14.44,73412.8,-0.37,-1.63,-1.59,0,*5D